| time (UTC) | temp F | wind direction | speed knots | gust knots | rain 1hr in | rain 24hr in | rain mn in | humidity % | barometer mb |
| 20260502231620 | 57 | 131 | 0.9 | 4.3 | 0.09 | 0.19 | 0.15 | 94 | 1013.3 |
| 20260502231121 | 57 | 133 | 1.7 | 4.3 | 0.09 | 0.19 | 0.15 | 94 | 1013.4 |
| 20260502230618 | 57 | 113 | 1.7 | 3.5 | 0.11 | 0.19 | 0.15 | 93 | 1013.5 |
| 20260502230117 | 57 | 113 | 1.7 | 3.5 | 0.15 | 0.19 | 0.15 | 93 | 1013.6 |
| 20260502225616 | 57 | 66 | 1.7 | 4.3 | 0.18 | 0.19 | 0.15 | 93 | 1013.6 |
| 20260502225117 | 57 | 37 | 1.7 | 4.3 | 0.18 | 0.18 | 0.14 | 93 | 1013.6 |
| 20260502224617 | 58 | 11 | 1.7 | 4.3 | 0.18 | 0.18 | 0.14 | 92 | 1013.7 |
| 20260502224114 | 58 | 51 | 1.7 | 5.2 | 0.18 | 0.18 | 0.14 | 92 | 1013.6 |
| 20260502223614 | 58 | 30 | 2.6 | 5.2 | 0.17 | 0.17 | 0.13 | 91 | 1013.7 |
| 20260502223116 | 58 | 21 | 1.7 | 5.2 | 0.15 | 0.15 | 0.11 | 90 | 1014.0 |
| 20260502222614 | 59 | 220 | 1.7 | 2.6 | 0.13 | 0.13 | 0.09 | 89 | 1014.4 |
| 20260502222115 | 59 | 220 | 0.9 | 1.7 | 0.12 | 0.12 | 0.07 | 88 | 1014.6 |
| 20260502220614 | 60 | 219 | 0.9 | 5.2 | 0.08 | 0.08 | 0.03 | 85 | 1015.1 |
| 20260502215609 | 61 | 250 | 1.7 | 6.1 | 0.01 | 0.01 | 0.00 | 78 | 1015.0 |
| 20260502215110 | 62 | 290 | 1.7 | 17.4 | 0.00 | 0.00 | 0.00 | 77 | 1015.0 |
| 20260502214608 | 62 | 240 | 1.7 | 17.4 | 0.00 | 0.00 | 0.00 | 74 | 1015.1 |
| 20260502214108 | 62 | 219 | 3.5 | 9.6 | 0.00 | 0.00 | 0.00 | 70 | 1015.2 |
| 20260502213606 | 62 | 162 | 0.9 | 2.6 | 0.00 | 0.00 | 0.00 | 69 | 1013.9 |
| 20260502212105 | 62 | 133 | 1.7 | 3.5 | 0.00 | 0.00 | 0.00 | 68 | 1013.7 |
| 20260502211605 | 62 | 63 | 1.7 | 3.5 | 0.00 | 0.00 | 0.00 | 67 | 1013.5 |
| 20260502211102 | 62 | 37 | 1.7 | 3.5 | 0.00 | 0.00 | 0.00 | 66 | 1013.6 |
| 20260502210602 | 62 | 21 | 0.9 | 4.3 | 0.00 | 0.00 | 0.00 | 65 | 1013.7 |
| 20260502205603 | 62 | 30 | 1.7 | 3.5 | 0.00 | 0.00 | 0.00 | 65 | 1013.9 |
| 20260502205102 | 63 | 93 | 0.9 | 7.8 | 0.00 | 0.00 | 0.00 | 65 | 1014.0 |
| 20260502204602 | 63 | 27 | 1.7 | 7.8 | 0.00 | 0.00 | 0.00 | 64 | 1014.0 |
| 20260502204103 | 63 | 94 | 1.7 | 3.5 | 0.00 | 0.00 | 0.00 | 64 | 1013.9 |
| 20260502203604 | 63 | 0 | 1.7 | 4.3 | 0.00 | 0.00 | 0.00 | 64 | 1013.9 |
| 20260502203102 | 63 | 17 | 1.7 | 4.3 | 0.00 | 0.00 | 0.00 | 65 | 1013.8 |
| 20260502202104 | 63 | 0 | 1.7 | 4.3 | 0.00 | 0.00 | 0.00 | 66 | 1014.0 |
| 20260502201603 | 63 | 68 | 1.7 | 3.5 | 0.00 | 0.00 | 0.00 | 67 | 1014.2 |
| 20260502201104 | 63 | 41 | 1.7 | 5.2 | 0.00 | 0.00 | 0.00 | 67 | 1014.2 |
| 20260502200602 | 63 | 44 | 2.6 | 5.2 | 0.00 | 0.00 | 0.00 | 66 | 1014.2 |
| 20260502195604 | 64 | 31 | 1.7 | 4.3 | 0.00 | 0.00 | 0.00 | 67 | 1014.3 |
| 20260502195103 | 64 | 24 | 1.7 | 4.3 | 0.00 | 0.00 | 0.00 | 67 | 1014.4 |
| 20260502194601 | 64 | 353 | 2.6 | 4.3 | 0.00 | 0.00 | 0.00 | 66 | 1014.4 |
| 20260502194102 | 64 | 0 | 2.6 | 4.3 | 0.00 | 0.00 | 0.00 | 66 | 1014.3 |
| 20260502193604 | 65 | 25 | 1.7 | 4.3 | 0.00 | 0.00 | 0.00 | 66 | 1014.5 |
| 20260502193103 | 65 | 0 | 1.7 | 3.5 | 0.00 | 0.00 | 0.00 | 65 | 1014.5 |
| 20260502192604 | 65 | 34 | 1.7 | 3.5 | 0.00 | 0.00 | 0.00 | 65 | 1014.5 |
| 20260502192102 | 66 | 20 | 1.7 | 4.3 | 0.00 | 0.00 | 0.00 | 65 | 1014.5 |
| 20260502191602 | 66 | 23 | 1.7 | 5.2 | 0.00 | 0.00 | 0.00 | 65 | 1014.4 |
| 20260502191102 | 66 | 20 | 3.5 | 5.2 | 0.00 | 0.00 | 0.00 | 64 | 1014.5 |
| 20260502190104 | 67 | 23 | 1.7 | 4.3 | 0.00 | 0.00 | 0.00 | 63 | 1014.4 |
| 20260502185102 | 68 | 32 | 1.7 | 3.5 | 0.00 | 0.00 | 0.00 | 63 | 1014.5 |
| 20260502184603 | 68 | 17 | 1.7 | 4.3 | 0.00 | 0.00 | 0.00 | 63 | 1014.5 |
| 20260502184101 | 68 | 355 | 1.7 | 6.1 | 0.00 | 0.00 | 0.00 | 63 | 1014.5 |
| 20260502183602 | 69 | 21 | 3.5 | 6.1 | 0.00 | 0.00 | 0.00 | 63 | 1014.5 |
| 20260502183103 | 69 | 338 | 1.7 | 2.6 | 0.00 | 0.00 | 0.00 | 65 | 1014.4 |
| 20260502182603 | 69 | 320 | 0.9 | 2.6 | 0.00 | 0.00 | 0.00 | 65 | 1014.3 |
| 20260502182101 | 69 | 320 | 0.9 | 2.6 | 0.00 | 0.00 | 0.00 | 64 | 1014.3 |
| 20260502181603 | 69 | 320 | 1.7 | 3.5 | 0.00 | 0.00 | 0.00 | 63 | 1014.2 |
| 20260502181103 | 70 | 343 | 0.9 | 3.5 | 0.00 | 0.00 | 0.00 | 63 | 1014.2 |
| 20260502180602 | 70 | 0 | 1.7 | 3.5 | 0.00 | 0.00 | 0.00 | 62 | 1014.2 |
| 20260502180104 | 70 | 0 | 1.7 | 3.5 | 0.00 | 0.00 | 0.00 | 62 | 1014.2 |
| 20260502170104 | 72 | 321 | 1.7 | 3.5 | 0.00 | 0.00 | 0.00 | 61 | 1014.7 |
| 20260502164104 | 72 | 243 | 1.7 | 2.6 | 0.00 | 0.00 | 0.00 | 58 | 1014.9 |
| 20260502163102 | 72 | 310 | 0.0 | 3.5 | 0.00 | 0.00 | 0.00 | 60 | 1015.1 |
| 20260502162102 | 72 | 6 | 0.0 | 4.3 | 0.00 | 0.00 | 0.00 | 61 | 1015.2 |
| 20260502161604 | 72 | 326 | 1.7 | 6.1 | 0.00 | 0.00 | 0.00 | 61 | 1015.2 |
| 20260502161104 | 72 | 357 | 2.6 | 6.1 | 0.00 | 0.00 | 0.00 | 62 | 1015.3 |
| 20260502160602 | 73 | 179 | 1.7 | 4.3 | 0.00 | 0.00 | 0.00 | 62 | 1015.3 |
| 20260502152101 | 74 | 206 | 3.5 | 7.8 | 0.00 | 0.00 | 0.00 | 59 | 1015.8 |
| 20260502151102 | 74 | 226 | 1.7 | 5.2 | 0.00 | 0.00 | 0.00 | 60 | 1015.9 |
| 20260502150603 | 74 | 168 | 2.6 | 5.2 | 0.00 | 0.00 | 0.00 | 60 | 1016.0 |
| 20260502140104 | 74 | 220 | 1.7 | 4.3 | 0.00 | 0.00 | 0.00 | 63 | 1016.9 |
| 20260502130602 | 73 | 216 | 3.5 | 8.7 | 0.00 | 0.00 | 0.00 | 62 | 1017.3 |
| 20260502123602 | 73 | 42 | 1.7 | 7.8 | 0.00 | 0.00 | 0.00 | 65 | 1017.5 |
| 20260502123104 | 72 | 209 | 3.5 | 7.8 | 0.00 | 0.00 | 0.00 | 64 | 1017.6 |
| 20260502122602 | 73 | 221 | 3.5 | 7.8 | 0.00 | 0.00 | 0.00 | 64 | 1017.7 |
| 20260502122103 | 73 | 220 | 3.5 | 7.8 | 0.00 | 0.00 | 0.00 | 63 | 1017.7 |
| 20260502121604 | 73 | 186 | 2.6 | 9.6 | 0.00 | 0.00 | 0.00 | 63 | 1017.8 |
| 20260502121105 | 73 | 190 | 3.5 | 10.4 | 0.00 | 0.00 | 0.00 | 64 | 1017.8 |
| 20260502120604 | 74 | 171 | 5.2 | 10.4 | 0.00 | 0.00 | 0.00 | 62 | 1017.8 |
| 20260502120104 | 74 | 207 | 2.6 | 13.9 | 0.00 | 0.00 | 0.00 | 61 | 1017.8 |
| 20260502115602 | 75 | 155 | 4.3 | 13.9 | 0.00 | 0.00 | 0.00 | 60 | 1017.8 |
| 20260502115102 | 74 | 159 | 1.7 | 9.6 | 0.00 | 0.00 | 0.00 | 63 | 1017.8 |
| 20260502114604 | 74 | 228 | 3.5 | 13.0 | 0.00 | 0.00 | 0.00 | 61 | 1017.9 |
| 20260502114103 | 74 | 176 | 3.5 | 13.0 | 0.00 | 0.00 | 0.00 | 61 | 1017.9 |
| 20260502113603 | 74 | 189 | 2.6 | 8.7 | 0.00 | 0.00 | 0.00 | 65 | 1018.0 |
| 20260502113103 | 73 | 227 | 0.9 | 8.7 | 0.00 | 0.00 | 0.00 | 64 | 1018.0 |
| 20260502112604 | 73 | 219 | 1.7 | 7.8 | 0.00 | 0.00 | 0.00 | 64 | 1018.1 |
| 20260502112102 | 73 | 233 | 4.3 | 7.8 | 0.00 | 0.00 | 0.00 | 63 | 1018.1 |
| 20260502111103 | 72 | 237 | 2.6 | 6.1 | 0.00 | 0.00 | 0.00 | 65 | 1018.2 |
| 20260502110602 | 72 | 203 | 2.6 | 6.1 | 0.00 | 0.00 | 0.00 | 63 | 1018.1 |
| 20260502105603 | 72 | 220 | 3.5 | 7.8 | 0.00 | 0.00 | 0.00 | 64 | 1018.2 |
| 20260502105103 | 71 | 244 | 0.9 | 6.1 | 0.00 | 0.00 | 0.00 | 65 | 1018.3 |
| 20260502104604 | 72 | 175 | 2.6 | 8.7 | 0.00 | 0.00 | 0.00 | 64 | 1018.3 |
| 20260502103603 | 71 | 178 | 3.5 | 9.6 | 0.00 | 0.00 | 0.00 | 66 | 1018.2 |
| 20260502103103 | 71 | 193 | 2.6 | 6.1 | 0.00 | 0.00 | 0.00 | 69 | 1018.3 |
| 20260502102102 | 70 | 206 | 1.7 | 4.3 | 0.00 | 0.00 | 0.00 | 67 | 1018.4 |
| 20260502101602 | 70 | 185 | 1.7 | 8.7 | 0.00 | 0.00 | 0.00 | 68 | 1018.5 |
| 20260502101101 | 69 | 197 | 1.7 | 8.7 | 0.00 | 0.00 | 0.00 | 68 | 1018.5 |
| 20260502100602 | 70 | 210 | 2.6 | 7.8 | 0.00 | 0.00 | 0.00 | 68 | 1018.6 |
| 20260502091102 | 68 | 271 | 1.7 | 6.1 | 0.00 | 0.00 | 0.00 | 67 | 1018.7 |
| 20260502090602 | 67 | 100 | 2.6 | 6.1 | 0.00 | 0.00 | 0.00 | 68 | 1018.8 |
| 20260502090107 | 67 | 254 | 2.6 | 5.2 | 0.00 | 0.00 | 0.00 | 68 | 1018.8 |
| 20260502071054 | 54 | 189 | 0.9 | 2.6 | 0.00 | 0.00 | 0.00 | 73 | 1019.0 |
| 20260502070553 | 54 | 186 | 0.0 | 2.6 | 0.00 | 0.00 | 0.00 | 73 | 1018.9 |
| 20260502070056 | 53 | 186 | 0.0 | 2.6 | 0.00 | 0.00 | 0.00 | 73 | 1018.8 |
| 20260502065554 | 53 | 186 | 0.0 | 1.7 | 0.00 | 0.00 | 0.00 | 73 | 1018.7 |
| 20260502065055 | 53 | 186 | 0.0 | 1.7 | 0.00 | 0.00 | 0.00 | 73 | 1018.7 |
| 20260502064053 | 53 | 186 | 0.0 | 1.7 | 0.00 | 0.00 | 0.00 | 74 | 1018.8 |
| 20260502063052 | 52 | 186 | 0.0 | 2.6 | 0.00 | 0.00 | 0.00 | 74 | 1018.9 |
| 20260502062551 | 52 | 186 | 0.9 | 2.6 | 0.00 | 0.00 | 0.00 | 75 | 1018.9 |
| 20260502062053 | 52 | 186 | 0.0 | 2.6 | 0.00 | 0.00 | 0.00 | 76 | 1018.9 |
| 20260502061554 | 52 | 186 | 0.0 | 2.6 | 0.00 | 0.00 | 0.00 | 76 | 1019.0 |
| 20260502061051 | 51 | 186 | 0.0 | 2.6 | 0.00 | 0.00 | 0.00 | 76 | 1019.0 |
| 20260502060551 | 51 | 186 | 0.0 | 2.6 | 0.00 | 0.00 | 0.00 | 77 | 1019.0 |
| 20260502060047 | 51 | 192 | 0.9 | 2.6 | 0.00 | 0.00 | 0.00 | 77 | 1018.9 |
| 20260502055547 | 51 | 196 | 1.7 | 2.6 | 0.00 | 0.00 | 0.00 | 77 | 1019.0 |
| 20260502055046 | 50 | 196 | 0.0 | 0.9 | 0.00 | 0.00 | 0.00 | 78 | 1018.9 |
| 20260502054545 | 50 | 196 | 0.0 | 1.7 | 0.00 | 0.00 | 0.00 | 79 | 1018.9 |
| 20260502054046 | 50 | 195 | 0.0 | 1.7 | 0.00 | 0.00 | 0.00 | 80 | 1018.9 |
| 20260502053544 | 50 | 196 | 0.0 | 1.7 | 0.00 | 0.00 | 0.00 | 81 | 1018.9 |
| 20260502053042 | 49 | 199 | 0.0 | 0.9 | 0.00 | 0.00 | 0.00 | 80 | 1018.9 |
| 20260502052541 | 49 | 199 | 0.0 | 1.7 | 0.00 | 0.00 | 0.00 | 81 | 1018.7 |
| 20260502052038 | 49 | 199 | 0.9 | 1.7 | 0.00 | 0.00 | 0.00 | 81 | 1018.6 |
| 20260502051538 | 49 | 199 | 0.9 | 0.9 | 0.00 | 0.00 | 0.00 | 80 | 1018.5 |
| 20260502051038 | 48 | 199 | 0.0 | 1.7 | 0.00 | 0.00 | 0.00 | 80 | 1018.5 |
| 20260502050539 | 48 | 199 | 0.0 | 1.7 | 0.00 | 0.00 | 0.00 | 79 | 1018.6 |
| 20260502050037 | 48 | 199 | 0.0 | 2.6 | 0.00 | 0.00 | 0.00 | 79 | 1018.5 |
| 20260502045540 | 48 | 199 | 0.9 | 4.3 | 0.00 | 0.00 | 0.00 | 79 | 1018.5 |
| 20260502044539 | 48 | 168 | 0.9 | 3.5 | 0.00 | 0.00 | 0.00 | 79 | 1018.7 |
| 20260502044036 | 48 | 168 | 0.9 | 1.7 | 0.00 | 0.00 | 0.00 | 79 | 1018.7 |
| 20260502043537 | 48 | 168 | 0.0 | 1.7 | 0.00 | 0.00 | 0.00 | 79 | 1018.6 |
| 20260502042535 | 47 | 168 | 0.0 | 2.6 | 0.00 | 0.00 | 0.00 | 79 | 1018.7 |
| 20260502042035 | 47 | 168 | 0.0 | 2.6 | 0.00 | 0.00 | 0.00 | 79 | 1018.7 |
| 20260502041534 | 47 | 133 | 1.7 | 2.6 | 0.00 | 0.00 | 0.00 | 79 | 1018.6 |
| 20260502041033 | 47 | 133 | 0.0 | 1.7 | 0.00 | 0.00 | 0.00 | 79 | 1018.7 |
| 20260502040534 | 47 | 133 | 0.0 | 1.7 | 0.00 | 0.00 | 0.00 | 79 | 1018.6 |
| 20260502040031 | 47 | 133 | 0.9 | 1.7 | 0.00 | 0.00 | 0.00 | 79 | 1018.6 |
| 20260502035031 | 47 | 133 | 0.0 | 0.9 | 0.00 | 0.00 | 0.00 | 78 | 1018.7 |
| 20260502034530 | 47 | 133 | 0.0 | 0.0 | 0.00 | 0.00 | 0.00 | 78 | 1018.8 |
| 20260502033527 | 48 | 133 | 0.0 | 0.0 | 0.00 | 0.00 | 0.00 | 78 | 1018.9 |
| 20260502033028 | 48 | 133 | 0.0 | 0.0 | 0.00 | 0.00 | 0.00 | 78 | 1018.9 |
| 20260502032527 | 48 | 133 | 0.0 | 0.0 | 0.00 | 0.00 | 0.00 | 77 | 1018.9 |
| 20260502031526 | 48 | 133 | 0.0 | 0.0 | 0.00 | 0.00 | 0.00 | 77 | 1019.0 |
| 20260502031026 | 48 | 133 | 0.0 | 0.0 | 0.00 | 0.00 | 0.00 | 77 | 1019.0 |
| 20260502030524 | 48 | 133 | 0.0 | 0.9 | 0.00 | 0.00 | 0.00 | 77 | 1019.0 |
| 20260502030025 | 48 | 133 | 0.0 | 0.9 | 0.00 | 0.00 | 0.00 | 77 | 1019.1 |
| 20260502025023 | 48 | 133 | 0.0 | 0.9 | 0.00 | 0.00 | 0.00 | 76 | 1019.2 |
| 20260502024523 | 48 | 133 | 0.0 | 0.9 | 0.00 | 0.00 | 0.00 | 76 | 1019.2 |
| 20260502024021 | 49 | 133 | 0.0 | 0.9 | 0.00 | 0.00 | 0.00 | 76 | 1019.2 |
| 20260502023521 | 49 | 133 | 0.0 | 0.9 | 0.00 | 0.00 | 0.00 | 76 | 1019.3 |
| 20260502023020 | 49 | 133 | 0.0 | 0.9 | 0.00 | 0.00 | 0.00 | 76 | 1019.3 |
| 20260502022519 | 49 | 133 | 0.0 | 1.7 | 0.00 | 0.00 | 0.00 | 75 | 1019.3 |
| 20260502022018 | 49 | 133 | 0.0 | 1.7 | 0.00 | 0.00 | 0.00 | 75 | 1019.3 |
| 20260502020520 | 49 | 127 | 0.9 | 0.9 | 0.00 | 0.00 | 0.00 | 75 | 1019.4 |
| 20260502020021 | 49 | 127 | 0.0 | 1.7 | 0.00 | 0.00 | 0.00 | 75 | 1019.3 |
| 20260502014519 | 49 | 127 | 0.0 | 0.9 | 0.00 | 0.00 | 0.00 | 74 | 1019.4 |
| 20260502014019 | 50 | 127 | 0.0 | 0.9 | 0.00 | 0.00 | 0.00 | 74 | 1019.4 |
| 20260502013518 | 50 | 127 | 0.0 | 0.9 | 0.00 | 0.00 | 0.00 | 74 | 1019.4 |
| 20260502013018 | 50 | 127 | 0.0 | 0.9 | 0.00 | 0.00 | 0.00 | 74 | 1019.5 |
| 20260502012518 | 50 | 127 | 0.0 | 0.9 | 0.00 | 0.00 | 0.00 | 74 | 1019.5 |
| 20260502012017 | 50 | 127 | 0.0 | 1.7 | 0.00 | 0.00 | 0.00 | 73 | 1019.5 |
| 20260502011519 | 50 | 127 | 0.0 | 1.7 | 0.00 | 0.00 | 0.00 | 73 | 1019.6 |
| 20260502011017 | 50 | 127 | 0.0 | 1.7 | 0.00 | 0.00 | 0.00 | 73 | 1019.7 |
| 20260502010517 | 50 | 127 | 0.0 | 1.7 | 0.00 | 0.00 | 0.00 | 73 | 1019.8 |
| 20260502010017 | 50 | 127 | 0.0 | 1.7 | 0.00 | 0.00 | 0.00 | 73 | 1019.8 |
| 20260502005515 | 51 | 127 | 0.0 | 1.7 | 0.00 | 0.00 | 0.00 | 72 | 1019.9 |
| 20260502005015 | 51 | 127 | 0.0 | 1.7 | 0.00 | 0.00 | 0.00 | 72 | 1019.9 |
| 20260502004512 | 51 | 127 | 0.0 | 1.7 | 0.00 | 0.00 | 0.00 | 72 | 1020.0 |
| 20260502003510 | 51 | 127 | 0.0 | 1.7 | 0.00 | 0.00 | 0.00 | 72 | 1020.0 |
| 20260502002511 | 51 | 127 | 0.9 | 1.7 | 0.00 | 0.00 | 0.00 | 71 | 1020.1 |
| 20260502002010 | 51 | 127 | 0.0 | 1.7 | 0.00 | 0.00 | 0.00 | 71 | 1020.2 |
| 20260502001509 | 51 | 127 | 0.0 | 1.7 | 0.00 | 0.00 | 0.00 | 71 | 1020.2 |
| 20260502001010 | 52 | 127 | 0.0 | 1.7 | 0.00 | 0.00 | 0.00 | 71 | 1020.2 |
| 20260502000508 | 52 | 127 | 0.0 | 1.7 | 0.00 | 0.00 | 0.00 | 70 | 1020.2 |
| 20260501235507 | 52 | 127 | 0.0 | 1.7 | 0.00 | 0.00 | 0.00 | 70 | 1020.3 |
| 20260501234507 | 52 | 127 | 0.0 | 0.9 | 0.00 | 0.00 | 0.00 | 69 | 1020.4 |
| 20260501234004 | 53 | 127 | 0.0 | 0.9 | 0.00 | 0.00 | 0.00 | 69 | 1020.5 |
| 20260501233505 | 53 | 127 | 0.0 | 1.7 | 0.00 | 0.00 | 0.00 | 69 | 1020.5 |
| 20260501232504 | 53 | 127 | 0.0 | 0.0 | 0.00 | 0.00 | 0.00 | 68 | 1020.5 |